This is the latest recevied weather packets stored in our database for station/object AC2VK-1. If no packets are shown the sender has not sent any weather packets the latest 1 day(s).
| Time | Temp. | Humidity | Pressure | Rain* | Wind** | Luminosity | Snow |
|---|---|---|---|---|---|---|---|
| 1777977557 | 15° C | 63% | 1015.3 hPa | 0 mm | 0 m/s | - | - |
| 1777976957 | 15.56° C | 61% | 1015.3 hPa | 0 mm | 0 m/s | - | - |
| 1777976357 | 15.56° C | 60% | 1015.3 hPa | 0 mm | 0 m/s | - | - |
| 1777975757 | 16.11° C | 59% | 1015.4 hPa | 0 mm | 0 m/s | - | - |
| 1777975157 | 16.11° C | 58% | 1015.5 hPa | 0 mm | 0 m/s | - | - |
| 1777974557 | 16.67° C | 58% | 1015.5 hPa | 0 mm | 0 m/s | - | - |
| 1777973957 | 16.67° C | 59% | 1015.4 hPa | 0 mm | 0.45 m/s, 152° | - | - |
| 1777973357 | 16.11° C | 59% | 1015.5 hPa | 0 mm | 0 m/s | - | - |
| 1777972757 | 16.11° C | 60% | 1015.5 hPa | 0 mm | 0 m/s | - | - |
| 1777972157 | 16.11° C | 61% | 1015.4 hPa | 0 mm | 0 m/s | - | - |
| 1777971557 | 16.11° C | 60% | 1015.3 hPa | 0 mm | 0 m/s | - | - |
| 1777970957 | 16.67° C | 60% | 1015.2 hPa | 0 mm | 0.45 m/s, 217° | - | - |
| 1777970357 | 16.67° C | 60% | 1015.2 hPa | 0 mm | 0.45 m/s, 171° | - | - |
| 1777969757 | 16.11° C | 61% | 1015.1 hPa | 0 mm | 0.45 m/s, 157° | - | - |
| 1777969157 | 16.11° C | 63% | 1015 hPa | 0 mm | 0.45 m/s, 162° | - | - |
| 1777968557 | 15.56° C | 64% | 1015 hPa | 0 mm | 0.45 m/s, 89° | - | - |
| 1777967957 | 15.56° C | 65% | 1015.1 hPa | 0 mm | 0.45 m/s, 192° | - | - |
| 1777967357 | 15.56° C | 65% | 1014.9 hPa | 0 mm | 0 m/s | - | - |
| 1777966757 | 15° C | 66% | 1015 hPa | 0 mm | 0 m/s | - | - |
| 1777966157 | 15.56° C | 66% | 1015.2 hPa | 0 mm | 0 m/s | - | - |
| 1777965557 | 15.56° C | 66% | 1015.3 hPa | 0 mm | 0 m/s | - | - |
| 1777964958 | 15.56° C | 66% | 1015.4 hPa | 0 mm | 0.45 m/s, 172° | - | - |
* Rain latest hour (hover to see other rain measurements)
** Current wind speed in m/s (hover to see current wind gust speed)